Fort Dix, NJ

7:44 AM EDT on July 29, 2016 (GMT -0400)
McGuire Air Force Base

Weather History for KWRI - March, 2013

Change the Weather History Date:

Tuesday, March 5, 2013

  Actual Average Record
Temperature  
Mean Temperature 38 °F -  
Max Temperature 47 °F 46 °F 62 °F (2008)
Min Temperature 30 °F 27 °F 10 °F (2009)
Degree Days  
Heating Degree Days 26    
Moisture  
Dew Point 23 °F    
Average Humidity 59    
Maximum Humidity 84    
Minimum Humidity 40    
Precipitation  
Precipitation 0.00 in - - ()
Sea Level Pressure  
Sea Level Pressure 29.98 in    
Wind  
Wind Speed 8 mph (North)    
Max Wind Speed 13 mph    
Max Gust Speed -    
Visibility 10 miles    
Events      
Averages and records for this station are not official NWS values.
T = Trace of Precipitation, MM = Missing Value Source: NWS Daily Summary

Daily Weather History Graph

Daily Weather History Graph

Search for Another Location

Airport or City:

Trip Planner

Search our weather history database for the weather conditions in past years. The results will help you decide how hot, cold, wet, or windy it might be!

Date:

Astronomy

Mar. 05, 2013 Rise Set
Actual Time 6:25 AM EST 5:54 PM EST
Civil Twilight 5:58 AM EST 6:21 PM EST
Nautical Twilight 5:26 AM EST 6:53 PM EST
Astronomical Twilight 4:55 AM EST 7:24 PM EST
Moon 1:34 AM EST (3/5) 11:31 AM EST (3/5)
Length of Visible Light 12h 23m
Length of Day
11h 29m
Last Quarter, 41% of the Moon is Illuminated
Mar 5
Last Quarter
Mar 11
New
Mar 19
First Quarter
Mar 27
Full
Apr 3
Last Quarter

Hourly Weather History & Observations

Time (EST) Temp. Windchill Dew Point Humidity Pressure Visibility Wind Dir Wind Speed Gust Speed Precip Events Conditions
12:55 AM 31.8 °F 22.8 °F 21.0 °F 64% 29.95 in 10.0 mi NNW 11.5 mph - N/A   Overcast
1:55 AM 32.7 °F 23.4 °F 20.5 °F 61% 29.94 in 10.0 mi NNW 12.7 mph - N/A   Scattered Clouds
2:55 AM 31.6 °F 23.1 °F 20.1 °F 62% 29.94 in 10.0 mi NNW 10.4 mph - N/A   Clear
3:55 AM 30.0 °F 22.4 °F 20.1 °F 67% 29.96 in 10.0 mi WNW 8.1 mph - N/A   Partly Cloudy
4:55 AM 30.2 °F 23.4 °F 20.5 °F 67% 29.99 in 10.0 mi NW 6.9 mph - N/A   Partly Cloudy
5:55 AM 30.2 °F 22.6 °F 20.3 °F 67% 29.99 in 10.0 mi NW 8.1 mph - N/A   Clear
6:55 AM 30.6 °F 23.8 °F 20.8 °F 67% 30.00 in 10.0 mi NW 6.9 mph - N/A   Clear
7:55 AM 34.5 °F 26.2 °F 22.1 °F 61% 30.01 in 10.0 mi NW 11.5 mph - N/A   Clear
8:55 AM 36.7 °F 28.4 °F 21.7 °F 55% 30.03 in 10.0 mi North 12.7 mph - N/A   Clear
9:55 AM 39.4 °F 32.7 °F 21.9 °F 50% 30.02 in 10.0 mi North 10.4 mph - N/A   Clear
10:55 AM 41.4 °F 35.2 °F 22.5 °F 47% 30.01 in 10.0 mi NNW 10.4 mph - N/A   Clear
11:55 AM 43.2 °F 40.5 °F 23.0 °F 45% 30.00 in 10.0 mi NNW 4.6 mph - N/A   Clear
12:55 PM 45.5 °F 44.2 °F 23.7 °F 42% 29.99 in 10.0 mi Variable 3.5 mph - N/A   Clear
1:55 PM 46.6 °F - 24.3 °F 42% 29.99 in 10.0 mi Calm Calm - N/A   Clear
2:55 PM 47.3 °F - 24.3 °F 40% 29.97 in 10.0 mi Calm Calm - N/A   Clear
3:55 PM 47.1 °F - 24.1 °F 40% 29.96 in 10.0 mi North 3.5 mph - N/A   Clear
4:55 PM 46.6 °F - 23.4 °F 40% 29.94 in 10.0 mi Calm Calm - N/A   Clear
5:55 PM 41.9 °F 36.3 °F 25.7 °F 53% 29.98 in 7.0 mi ESE 9.2 mph - N/A   Clear
6:55 PM 38.1 °F 32.9 °F 26.1 °F 62% 29.99 in 10.0 mi SE 6.9 mph - N/A   Clear
7:55 PM 34.9 °F - 25.2 °F 68% 29.99 in 10.0 mi Calm Calm - N/A   Clear
8:55 PM 33.8 °F - 25.5 °F 72% 29.99 in 10.0 mi Calm Calm - N/A   Clear
9:55 PM 31.5 °F 28.1 °F 25.0 °F 77% 29.98 in 10.0 mi East 3.5 mph - N/A   Clear
10:55 PM 30.0 °F 26.5 °F 24.8 °F 81% 29.96 in 10.0 mi ESE 3.5 mph - N/A   Clear
11:55 PM 30.2 °F 24.3 °F 25.9 °F 84% 29.94 in 10.0 mi East 5.8 mph - N/A   Clear